Time,TemperatureF,DewpointF,PressureIn,WindDirection,WindDirectionDegrees,WindSpeedMPH,WindSpeedGustMPH,Humidity,HourlyPrecipIn,Conditions,Clouds,dailyrainin,SoftwareType,DateUTC
2013-01-12 00:01:00,46.5,45.2,30.10,WNW,301,0.0,2.0,95,0.00,,,0.00,VWS V14.00,2013-01-12 05:01:00,
2013-01-12 00:16:00,46.7,45.3,30.11,WNW,301,2.0,3.0,95,0.00,,,0.00,VWS V14.00,2013-01-12 05:16:00,
2013-01-12 00:31:00,46.8,45.5,30.10,WNW,295,0.0,3.0,95,0.00,,,0.00,VWS V14.00,2013-01-12 05:31:00,
2013-01-12 00:46:00,46.8,45.5,30.09,WNW,302,0.0,2.0,95,0.00,,,0.00,VWS V14.00,2013-01-12 05:46:00,
2013-01-12 01:01:00,47.0,45.7,30.10,WNW,298,2.0,2.0,95,0.00,,,0.00,VWS V14.00,2013-01-12 06:01:00,
2013-01-12 01:16:00,47.0,45.7,30.09,WNW,296,0.0,2.0,95,0.00,,,0.00,VWS V14.00,2013-01-12 06:16:00,
2013-01-12 01:31:00,47.0,45.7,30.08,WNW,296,0.0,3.0,95,0.00,,,0.00,VWS V14.00,2013-01-12 06:31:00,
2013-01-12 01:46:00,47.0,45.7,30.08,WNW,295,0.0,0.0,95,0.00,,,0.00,VWS V14.00,2013-01-12 06:46:00,
2013-01-12 02:01:00,47.4,46.0,30.08,WNW,292,0.0,0.0,95,0.00,,,0.00,VWS V14.00,2013-01-12 07:01:00,
2013-01-12 02:16:00,47.4,46.0,30.08,WNW,291,0.0,2.0,95,0.00,,,0.00,VWS V14.00,2013-01-12 07:16:00,
2013-01-12 02:31:00,47.4,46.0,30.09,WNW,291,0.0,2.0,95,0.00,,,0.00,VWS V14.00,2013-01-12 07:31:00,
2013-01-12 02:46:00,47.4,46.0,30.09,WNW,291,0.0,2.0,95,0.00,,,0.00,VWS V14.00,2013-01-12 07:46:00,
2013-01-12 03:01:00,47.4,46.0,30.09,WNW,299,0.0,0.0,95,0.00,,,0.00,VWS V14.00,2013-01-12 08:01:00,
2013-01-12 03:16:00,47.6,46.2,30.08,WNW,292,0.0,1.0,95,0.00,,,0.00,VWS V14.00,2013-01-12 08:16:00,
2013-01-12 03:31:00,47.9,46.5,30.08,WNW,292,0.0,2.0,95,0.00,,,0.00,VWS V14.00,2013-01-12 08:31:00,
2013-01-12 03:46:00,48.3,46.9,30.07,WNW,292,0.0,2.0,95,0.00,,,0.00,VWS V14.00,2013-01-12 08:46:00,
2013-01-12 04:01:00,48.5,47.1,30.07,WNW,292,0.0,2.0,95,0.00,,,0.00,VWS V14.00,2013-01-12 09:01:00,
2013-01-12 04:16:00,48.6,47.2,30.07,WNW,292,0.0,1.0,95,0.00,,,0.00,VWS V14.00,2013-01-12 09:16:00,
2013-01-12 04:31:00,48.8,47.4,30.06,WNW,292,0.0,3.0,95,0.00,,,0.00,VWS V14.00,2013-01-12 09:31:00,
2013-01-12 04:46:00,48.9,47.5,30.06,WNW,292,0.0,2.0,95,0.00,,,0.00,VWS V14.00,2013-01-12 09:46:00,
2013-01-12 05:01:00,49.2,47.8,30.05,WNW,292,0.0,1.0,95,0.00,,,0.00,VWS V14.00,2013-01-12 10:01:00,
2013-01-12 05:16:00,49.4,48.0,30.06,WNW,292,0.0,2.0,95,0.00,,,0.00,VWS V14.00,2013-01-12 10:16:00,
2013-01-12 05:31:00,49.6,48.2,30.06,WNW,298,1.0,2.0,95,0.00,,,0.00,VWS V14.00,2013-01-12 10:31:00,
2013-01-12 05:46:00,49.9,48.5,30.06,WNW,298,0.0,3.0,95,0.00,,,0.00,VWS V14.00,2013-01-12 10:46:00,
2013-01-12 06:01:00,49.9,48.5,30.06,WNW,291,1.0,3.0,95,0.00,,,0.00,VWS V14.00,2013-01-12 11:01:00,
2013-01-12 06:16:00,50.1,48.7,30.07,WNW,291,0.0,3.0,95,0.00,,,0.00,VWS V14.00,2013-01-12 11:16:00,
2013-01-12 06:31:00,49.9,48.5,30.07,WNW,291,0.0,2.0,95,0.00,,,0.00,VWS V14.00,2013-01-12 11:31:00,
2013-01-12 06:46:00,49.9,48.5,30.07,WNW,291,0.0,0.0,95,0.00,,,0.00,VWS V14.00,2013-01-12 11:46:00,
2013-01-12 07:01:00,50.1,48.7,30.07,WNW,291,0.0,2.0,95,0.00,,,0.00,VWS V14.00,2013-01-12 12:01:00,
2013-01-12 07:16:00,50.2,48.8,30.07,WNW,291,0.0,3.0,95,0.00,,,0.00,VWS V14.00,2013-01-12 12:16:00,
2013-01-12 07:31:00,50.4,49.0,30.08,WNW,291,0.0,2.0,95,0.00,,,0.00,VWS V14.00,2013-01-12 12:31:00,
2013-01-12 07:46:00,50.5,49.1,30.08,WNW,292,0.0,2.0,95,0.00,,,0.00,VWS V14.00,2013-01-12 12:46:00,
2013-01-12 08:01:00,50.5,49.1,30.09,WNW,291,0.0,2.0,95,0.00,,,0.00,VWS V14.00,2013-01-12 13:01:00,
2013-01-12 08:16:00,51.0,49.6,30.08,WNW,291,0.0,2.0,95,0.00,,,0.00,VWS V14.00,2013-01-12 13:16:00,
2013-01-12 08:31:00,51.4,50.0,30.09,WNW,291,0.0,2.0,95,0.00,,,0.00,VWS V14.00,2013-01-12 13:31:00,
2013-01-12 08:46:00,52.0,50.6,30.09,WNW,291,0.0,3.0,95,0.00,,,0.00,VWS V14.00,2013-01-12 13:46:00,
2013-01-12 09:01:00,52.6,51.2,30.10,West,275,4.0,7.0,95,0.00,,,0.00,VWS V14.00,2013-01-12 14:01:00,
2013-01-12 09:16:00,53.1,51.7,30.10,West,275,0.0,6.0,95,0.00,,,0.00,VWS V14.00,2013-01-12 14:16:00,
2013-01-12 09:31:00,53.3,51.9,30.10,West,270,1.0,3.0,95,0.00,,,0.00,VWS V14.00,2013-01-12 14:31:00,
2013-01-12 09:46:00,53.9,52.5,30.10,SSW,212,2.0,6.0,95,0.00,,,0.00,VWS V14.00,2013-01-12 14:46:00,
2013-01-12 10:01:00,54.7,53.3,30.10,SW,219,1.0,8.0,95,0.00,,,0.00,VWS V14.00,2013-01-12 15:01:00,
2013-01-12 10:16:00,55.3,53.9,30.10,SW,219,2.0,5.0,95,0.00,,,0.00,VWS V14.00,2013-01-12 15:16:00,
2013-01-12 10:31:00,55.9,54.5,30.09,SW,219,1.0,6.0,95,0.00,,,0.00,VWS V14.00,2013-01-12 15:31:00,
2013-01-12 10:46:00,56.6,55.2,30.09,SW,219,1.0,5.0,95,0.00,,,0.00,VWS V14.00,2013-01-12 15:46:00,
2013-01-12 11:01:00,56.6,55.2,30.09,SW,223,0.0,6.0,95,0.00,,,0.00,VWS V14.00,2013-01-12 16:01:00,
2013-01-12 11:16:00,57.2,55.8,30.09,SW,226,2.0,6.0,95,0.00,,,0.00,VWS V14.00,2013-01-12 16:16:00,
2013-01-12 11:31:00,57.6,56.2,30.08,SW,227,2.0,4.0,95,0.00,,,0.00,VWS V14.00,2013-01-12 16:31:00,
2013-01-12 11:46:00,57.8,56.4,30.08,SW,227,0.0,2.0,95,0.00,,,0.00,VWS V14.00,2013-01-12 16:46:00,
2013-01-12 12:01:00,58.7,57.3,30.07,SW,227,3.0,5.0,95,0.00,,,0.00,VWS V14.00,2013-01-12 17:01:00,
2013-01-12 12:16:00,59.9,58.5,30.06,SW,227,0.0,5.0,95,0.00,,,0.00,VWS V14.00,2013-01-12 17:16:00,
2013-01-12 12:31:00,60.5,59.1,30.06,SW,227,0.0,2.0,95,0.00,,,0.00,VWS V14.00,2013-01-12 17:31:00,
2013-01-12 12:46:00,61.0,59.6,30.06,SW,227,0.0,1.0,95,0.00,,,0.00,VWS V14.00,2013-01-12 17:46:00,
2013-01-12 13:01:00,61.6,59.0,30.05,SW,227,0.0,1.0,91,0.00,,BKN120,0.00,VWS V14.00,2013-01-12 18:01:00,
2013-01-12 13:16:00,62.4,58.5,30.05,SW,227,0.0,2.0,87,0.00,,BKN120,0.00,VWS V14.00,2013-01-12 18:16:00,
2013-01-12 13:31:00,63.5,58.2,30.04,SW,227,2.0,3.0,83,0.00,,BKN120,0.00,VWS V14.00,2013-01-12 18:31:00,
2013-01-12 13:46:00,64.2,58.3,30.05,SW,227,1.0,3.0,81,0.00,,BKN120,0.00,VWS V14.00,2013-01-12 18:46:00,
2013-01-12 14:01:00,64.5,57.8,30.04,SW,229,0.0,3.0,79,0.00,,BKN110,0.00,VWS V14.00,2013-01-12 19:01:00,
2013-01-12 14:16:00,64.8,58.5,30.04,SW,227,0.0,2.0,80,0.00,,BKN110,0.00,VWS V14.00,2013-01-12 19:16:00,
2013-01-12 14:31:00,65.0,58.7,30.05,SW,227,0.0,1.0,80,0.00,,BKN110,0.00,VWS V14.00,2013-01-12 19:31:00,
2013-01-12 14:46:00,65.5,58.5,30.04,SW,227,0.0,2.0,78,0.00,,BKN110,0.00,VWS V14.00,2013-01-12 19:46:00,
2013-01-12 15:01:00,65.8,58.8,30.04,SW,227,0.0,1.0,78,0.00,,OVC110,0.00,VWS V14.00,2013-01-12 20:01:00,
2013-01-12 15:16:00,66.1,59.4,30.04,SW,227,0.0,1.0,79,0.00,,OVC110,0.00,VWS V14.00,2013-01-12 20:16:00,
2013-01-12 15:31:00,66.1,59.0,30.04,SW,227,0.0,3.0,78,0.00,,OVC110,0.00,VWS V14.00,2013-01-12 20:31:00,
2013-01-12 15:46:00,66.1,59.0,30.04,SW,227,0.0,2.0,78,0.00,,OVC110,0.00,VWS V14.00,2013-01-12 20:46:00,
2013-01-12 16:01:00,66.1,59.4,30.05,SW,227,0.0,0.0,79,0.00,,BKN110,0.00,VWS V14.00,2013-01-12 21:01:00,
2013-01-12 16:16:00,66.1,59.4,30.04,SW,227,0.0,0.0,79,0.00,,BKN110,0.00,VWS V14.00,2013-01-12 21:16:00,
2013-01-12 16:31:00,66.1,59.4,30.04,SW,227,0.0,0.0,79,0.00,,BKN110,0.00,VWS V14.00,2013-01-12 21:31:00,
2013-01-12 16:46:00,66.1,59.4,30.04,SW,227,0.0,0.0,79,0.00,,BKN110,0.00,VWS V14.00,2013-01-12 21:46:00,
2013-01-12 17:01:00,65.8,59.5,30.04,SW,227,0.0,0.0,80,0.00,,OVC085,0.00,VWS V14.00,2013-01-12 22:01:00,
2013-01-12 17:16:00,65.2,59.2,30.04,SW,229,0.0,0.0,81,0.00,,OVC085,0.00,VWS V14.00,2013-01-12 22:16:00,
2013-01-12 17:31:00,64.0,58.4,30.04,SW,227,0.0,0.0,82,0.00,,OVC085,0.00,VWS V14.00,2013-01-12 22:31:00,
2013-01-12 17:46:00,64.0,58.4,30.05,SW,227,0.0,0.0,82,0.00,,OVC085,0.00,VWS V14.00,2013-01-12 22:46:00,
2013-01-12 18:01:00,60.4,55.9,30.04,SW,227,0.0,0.0,85,0.00,,BKN090,0.00,VWS V14.00,2013-01-12 23:01:00,
2013-01-12 18:16:00,59.6,55.7,30.03,SW,227,0.0,0.0,87,0.00,,BKN090,0.00,VWS V14.00,2013-01-12 23:16:00,
2013-01-12 18:31:00,58.9,55.4,30.03,SW,227,0.0,0.0,88,0.00,,BKN090,0.00,VWS V14.00,2013-01-12 23:31:00,
2013-01-12 18:46:00,58.3,55.4,30.04,SW,227,0.0,0.0,90,0.00,,BKN090,0.00,VWS V14.00,2013-01-12 23:46:00,
2013-01-12 19:01:00,58.3,55.7,30.04,SW,227,0.0,0.0,91,0.00,,FEW080,0.00,VWS V14.00,2013-01-13 00:01:00,
2013-01-12 19:16:00,57.8,55.2,30.03,SW,227,0.0,0.0,91,0.00,,FEW080,0.00,VWS V14.00,2013-01-13 00:16:00,
2013-01-12 19:31:00,57.3,55.0,30.03,SW,227,0.0,0.0,92,0.00,,,0.00,VWS V14.00,2013-01-13 00:31:00,
2013-01-12 19:46:00,57.0,54.7,30.03,SW,229,0.0,0.0,92,0.00,,,0.00,VWS V14.00,2013-01-13 00:46:00,
2013-01-12 20:01:00,57.0,55.0,30.04,SW,227,0.0,0.0,93,0.00,,,0.00,VWS V14.00,2013-01-13 01:01:00,
2013-01-12 20:16:00,56.5,54.5,30.03,SW,227,0.0,0.0,93,0.00,,,0.00,VWS V14.00,2013-01-13 01:16:00,
2013-01-12 20:31:00,55.9,53.9,30.03,SW,227,0.0,0.0,93,0.00,,,0.00,VWS V14.00,2013-01-13 01:31:00,
2013-01-12 20:46:00,55.4,53.4,30.03,SW,227,0.0,0.0,93,0.00,,,0.00,VWS V14.00,2013-01-13 01:46:00,
2013-01-12 21:01:00,55.1,53.1,30.03,SW,227,0.0,0.0,93,0.00,,,0.00,VWS V14.00,2013-01-13 02:01:00,
2013-01-12 21:16:00,54.8,52.8,30.03,SW,227,0.0,0.0,93,0.00,,,0.00,VWS V14.00,2013-01-13 02:16:00,
2013-01-12 21:31:00,54.8,52.8,30.03,SW,227,0.0,0.0,93,0.00,,,0.00,VWS V14.00,2013-01-13 02:31:00,
2013-01-12 21:46:00,55.4,53.7,30.03,SW,227,0.0,1.0,94,0.00,,,0.00,VWS V14.00,2013-01-13 02:46:00,
2013-01-12 22:01:00,55.7,54.0,30.03,SW,227,0.0,1.0,94,0.00,,,0.00,VWS V14.00,2013-01-13 03:01:00,
2013-01-12 22:16:00,55.6,53.9,30.02,SW,227,0.0,0.0,94,0.00,,,0.00,VWS V14.00,2013-01-13 03:16:00,
2013-01-12 22:31:00,55.3,53.6,30.02,SW,227,0.0,0.0,94,0.00,,,0.00,VWS V14.00,2013-01-13 03:31:00,
2013-01-12 22:46:00,55.0,53.3,30.03,SW,227,0.0,0.0,94,0.00,,,0.00,VWS V14.00,2013-01-13 03:46:00,
2013-01-12 23:01:00,55.7,54.0,30.03,SW,227,0.0,0.0,94,0.00,,,0.00,VWS V14.00,2013-01-13 04:01:00,
2013-01-12 23:16:00,56.0,54.3,30.02,SW,227,0.0,0.0,94,0.00,,,0.00,VWS V14.00,2013-01-13 04:16:00,
2013-01-12 23:31:00,55.9,54.2,30.02,SW,227,0.0,0.0,94,0.00,,,0.00,VWS V14.00,2013-01-13 04:31:00,
2013-01-12 23:46:00,55.9,54.2,30.02,SW,227,0.0,0.0,94,0.00,,,0.00,VWS V14.00,2013-01-13 04:46:00,